Weather History for Phoenix-Mesa Gateway Airport, AZ

Change the Weather History Date:

Tuesday, November 13, 2012

  Actual Average Record
Temperature  
Mean Temperature 57 °F -  
Max Temperature 73 °F 73 °F 91 °F (1999)
Min Temperature 41 °F 47 °F 37 °F (2000)
Degree Days  
Heating Degree Days 8    
Growing Degree Days 7 (Base 50)    
Moisture  
Dew Point 28 °F    
Average Humidity 45    
Maximum Humidity 66    
Minimum Humidity 10    
Precipitation  
Precipitation 0.00 in - - ()
Sea Level Pressure  
Sea Level Pressure 30.13 in    
Wind  
Wind Speed 3 mph (SE)    
Max Wind Speed 6 mph    
Max Gust Speed -    
Visibility 11 miles    
Events      
Averages and records for this station are not official NWS values.
T = Trace of Precipitation, MM = Missing Value Source: NWS Daily Summary

Daily Weather History Graph

Daily Weather History Graph

Search for Another Location

Airport:

Trip Planner

Search our weather history database for the weather conditions in past years. The results will help you decide how hot, cold, wet, or windy it might be!

Date:

Astronomy

Nov. 13, 2012 Rise Set
Actual Time 6:56 AM MST 5:25 PM MST
Civil Twilight 6:30 AM MST 5:51 PM MST
Nautical Twilight 6:00 AM MST 6:21 PM MST
Astronomical Twilight 5:30 AM MST 6:50 PM MST
Moon 6:38 AM MST (11/13) 5:23 PM MST (11/13)
Length of Visible Light 11h 21m
Length of Day
10h 28m
Waning Crescent, 0% of the Moon is Illuminated
Nov 13
Waning Crescent
Nov 13
New
Nov 20
First Quarter
Nov 28
Full
Dec 6
Last Quarter

Hourly Weather History & Observations

Time (MST) Temp. Windchill Dew Point Humidity Pressure Visibility Wind Dir Wind Speed Gust Speed Precip Events Conditions
12:15 AM 44.6 °F 42.2 °F 32.0 °F 61% 30.15 in 10.0 mi ESE 4.6 mph - N/A   Clear
12:35 AM 44.6 °F 43.1 °F 32.0 °F 61% 30.16 in 10.0 mi ESE 3.5 mph - N/A   Clear
12:55 AM 42.8 °F 39.3 °F 32.0 °F 66% 30.15 in 10.0 mi SSE 5.8 mph - N/A   Clear
1:15 AM 44.6 °F 42.2 °F 32.0 °F 61% 30.15 in 10.0 mi SE 4.6 mph - N/A   Clear
1:35 AM 42.8 °F 40.1 °F 32.0 °F 66% 30.15 in 7.0 mi SSE 4.6 mph - N/A   Clear
1:55 AM 42.8 °F 41.1 °F 32.0 °F 66% 30.16 in 10.0 mi South 3.5 mph - N/A   Clear
2:15 AM 42.8 °F - 30.2 °F 61% 30.16 in 10.0 mi Calm Calm - N/A   Clear
2:35 AM 42.8 °F - 30.2 °F 61% 30.16 in 10.0 mi Calm Calm - N/A   Clear
2:55 AM 42.8 °F 41.1 °F 30.2 °F 61% 30.16 in 10.0 mi East 3.5 mph - N/A   Clear
3:15 AM 42.8 °F 41.1 °F 30.2 °F 61% 30.15 in 10.0 mi SE 3.5 mph - N/A   Clear
3:35 AM 42.8 °F 40.1 °F 30.2 °F 61% 30.15 in 10.0 mi SSE 4.6 mph - N/A   Clear
3:55 AM 42.8 °F 40.1 °F 28.4 °F 57% 30.16 in 10.0 mi SSE 4.6 mph - N/A   Clear
4:15 AM 42.8 °F 40.1 °F 30.2 °F 61% 30.16 in 10.0 mi SE 4.6 mph - N/A   Clear
4:35 AM 42.8 °F - 30.2 °F 61% 30.17 in 10.0 mi Calm Calm - N/A   Clear
4:55 AM 42.8 °F - 30.2 °F 61% 30.17 in 10.0 mi Calm Calm - N/A   Clear
5:15 AM 42.8 °F 40.1 °F 30.2 °F 61% 30.17 in 10.0 mi SSE 4.6 mph - N/A   Clear
5:47 AM 42.8 °F 41.1 °F 28.4 °F 57% 30.17 in 20.0 mi Variable 3.5 mph - N/A   Clear
6:47 AM 41.0 °F 38.0 °F 30.2 °F 65% 30.18 in 30.0 mi ESE 4.6 mph - N/A   Clear
7:47 AM 42.8 °F 40.1 °F 30.2 °F 61% 30.18 in 30.0 mi East 4.6 mph - N/A   Clear
8:47 AM 53.6 °F - 32.0 °F 44% 30.18 in 30.0 mi South 3.5 mph - N/A   Clear
9:47 AM 60.8 °F - 23.0 °F 23% 30.18 in 30.0 mi Calm Calm - N/A   Partly Cloudy
10:47 AM 62.6 °F - 19.4 °F 19% 30.18 in 30.0 mi Calm Calm - N/A   Partly Cloudy
11:47 AM 66.2 °F - 14.0 °F 13% 30.16 in 35.0 mi Calm Calm - N/A   Clear
12:48 PM 71.6 °F - 14.0 °F 11% 30.11 in 35.0 mi WNW 3.5 mph - N/A   Clear
1:55 PM 73.4 °F - 14.0 °F 10% 30.09 in 35.0 mi Calm Calm - N/A   Clear
2:47 PM 73.4 °F - 14.0 °F 10% 30.06 in 35.0 mi WNW 4.6 mph - N/A   Clear
3:47 PM 73.4 °F - 15.8 °F 11% 30.05 in 35.0 mi SW 4.6 mph - N/A   Clear
4:47 PM 73.4 °F - 17.6 °F 12% 30.06 in 35.0 mi WSW 5.8 mph - N/A   Clear
5:53 PM 64.4 °F - 26.6 °F 24% 30.06 in 20.0 mi Calm Calm - N/A   Clear
6:49 PM 60.8 °F - 24.8 °F 25% 30.07 in 20.0 mi North 3.5 mph - N/A   Clear
7:47 PM 57.2 °F - 26.6 °F 31% 30.09 in 20.0 mi Calm Calm - N/A   Clear
7:55 PM 55.4 °F - 32.0 °F 41% 30.09 in 10.0 mi Calm Calm - N/A   Clear
8:15 PM 53.6 °F - 32.0 °F 44% 30.09 in 10.0 mi South 3.5 mph - N/A   Clear
8:35 PM 53.6 °F - 32.0 °F 44% 30.10 in 10.0 mi Calm Calm - N/A   Clear
8:47 PM 55.4 °F - 30.2 °F 38% 30.10 in 20.0 mi Calm Calm - N/A   Clear
8:55 PM 53.6 °F - 30.2 °F 41% 30.10 in 10.0 mi Calm Calm - N/A   Clear
9:15 PM 51.8 °F - 32.0 °F 47% 30.10 in 10.0 mi Calm Calm - N/A   Clear
9:35 PM 51.8 °F - 32.0 °F 47% 30.10 in 10.0 mi ESE 4.6 mph - N/A   Clear
9:55 PM 51.8 °F - 33.8 °F 50% 30.10 in 10.0 mi East 4.6 mph - N/A   Clear
10:15 PM 50.0 °F - 32.0 °F 50% 30.09 in 10.0 mi East 4.6 mph - N/A   Clear
10:35 PM 51.8 °F - 33.8 °F 50% 30.10 in 10.0 mi East 5.8 mph - N/A   Clear
10:55 PM 51.8 °F - 33.8 °F 50% 30.10 in 10.0 mi East 5.8 mph - N/A   Clear
11:15 PM 51.8 °F - 30.2 °F 44% 30.09 in 10.0 mi East 5.8 mph - N/A   Clear
11:35 PM 50.0 °F - 32.0 °F 50% 30.09 in 10.0 mi ENE 3.5 mph - N/A   Clear
11:55 PM 51.8 °F - 32.0 °F 47% 30.10 in 10.0 mi Calm Calm - N/A   Clear